Follow iAlert.com on twitter @ialertcom
Search For Active Alerts in Your Area  
  Hi Guest:  [ Sign-up / Services ] [ Login ]

Current weather by "City, St" or "zip code"  
 

Advertise Here

Current Conditions: New Orleans, New Orleans Lakefront Airport, LA

Fair


70.0 F

Last Updated on Oct 19 2018, 1:53 am CDT
Humidity: 68%
Wind Speed: E 12.7 mph
Barometer 30.21 in
Dewpoint: 59.0 F
Visibility: 10.00 mi
Precip: --
Heat Index: NA
Wind Chill: NA
Current conditions at:

New Orleans, New Orleans Lakefront Airport, LA (KNEW)

Lat: 30.04 Lon: 90.028

Local Radar Image active severe weather and emergency alerts image image weather storm and storm spotter reports image weather observation monitoring service image
Local
Radar
Active
Alerts
Storm Reports Obs
Monitoring

iAlert Weather and Emergency Alert Notification Services:


ialert severe weather and emergency alerts by text message and email ialert daily weather forecast by email and text message service ialert real-time weather-observation monitoring and alert notification service ialert storm report monitoring alert notification

Observation History for New Orleans, New Orleans Lakefront Airport, LA


Time Wind
(mph)
Vis
(mi)
Weather Precip (in) Temperature (F) Relative
Humidity
Wind
Chill
(°F)
Heat
Index
(°F)
Pressure
Air Dwpt altimeter
(in)
sea level
(mb)
1:53 am CDT E 12.7 10.00 Fair -- 70.0 59.0 68% NA NA 30.21 1022.3
12:53 am CDT NE 18.4 10.00 Fair -- 72.0 57.9 61% NA NA 30.22 1022.6
11:53 pm CDT NE 18.4 10.00 Fair -- 73.0 60.1 64% NA NA 30.22 1022.8
10:53 pm CDT NE 18.4 10.00 Fair -- 75.0 60.1 60% NA NA 30.24 1023.4
9:53 pm CDT NE 16.1 10.00 Fair -- 76.0 60.1 58% NA NA 30.25 1023.6
8:53 pm CDT NE 16.1 10.00 Fair -- 76.0 62.1 62% NA NA 30.24 1023.3
7:53 pm CDT NE 13.8 10.00 Fair -- 77.0 64.0 64% NA NA 30.23 1023.1
6:53 pm CDT NE 17.3 10.00 Fair -- 79.0 64.0 60% NA NA 30.21 1022.4
5:53 pm CDT NE 11.5 10.00 Fair -- 80.0 64.0 58% NA 82 30.20 1022.1
4:53 pm CDT NE 11.5 10.00 Fair -- 81.0 62.1 53% NA 82 30.20 1022.0
3:53 pm CDT NE 12.7 10.00 Fair -- 81.0 61.0 51% NA 82 30.20 1021.8
2:53 pm CDT NE 11.5 10.00 Fair -- 81.0 60.1 49% NA 82 30.21 1022.2
1:53 pm CDT NE 10.4 10.00 Fair -- 79.0 57.9 49% NA NA 30.22 1022.8
12:53 pm CDT NE 11.5 10.00 Fair -- 77.0 57.9 52% NA NA 30.26 1023.9
11:53 am CDT NE 12.7 10.00 Fair -- 74.0 57.0 56% NA NA 30.28 1024.6
10:53 am CDT NE 11.5 10.00 Fair -- 73.0 55.9 55% NA NA 30.29 1025.1
9:53 am CDT NE 13.8 10.00 Fair -- 71.0 57.0 61% NA NA 30.29 1024.9
8:53 am CDT E 18.4 10.00 Fair -- 68.0 55.0 63% NA NA 30.27 1024.2
7:53 am CDT NE 20.7 10.00 Fair and Breezy -- 67.0 55.0 66% NA NA 30.26 1023.9
6:53 am CDT NE 21.9 10.00 Fair and Breezy -- 67.0 55.9 68% NA NA 30.25 1023.6
5:53 am CDT NE 19.6 10.00 Fair -- 66.0 57.0 73% NA NA 30.23 1022.9
4:53 am CDT NE 18.4 10.00 Fair -- 67.0 59.0 76% NA NA 30.23 1023.0
3:53 am CDT NE 18.4 10.00 Partly Cloudy -- 67.0 60.1 79% NA NA 30.22 1022.8
2:53 am CDT NE 17.3 10.00 Overcast -- 69.0 64.0 84% NA NA 30.21 1022.4

Regional Weather Observation


New Orleans, New Orleans International Airport, LA (KMSY)

A Few Clouds
72.0 F

Hammond, Hammond Municipal Airport, LA (KHDC)

Fair
63.0 F

New Orleans Naval Air Station - Alvin Callender Field, LA (KNBG)

Partly Cloudy
75.0 F

Bogalusa, George R Carr Memorial Air Field, LA (KBXA)

Fair
61.0 F

Bay St. Louis, Stennis International Airport, MS (KHSA)

Fair
70.0 F

Houma-Terrebonne Airport, LA (KHUM)

Fair
68.0 F

Advertise Here